User: anonymous   Login
Location: North Smoke Tower Site
(30.5430°N, 82.3390°W)
Time: 06:02:11
(UTC-04:00)
Language:

Cosmos 1980 Rocket - Orbit

View from above orbital plane
View from above orbital plane
View from above satellite
View from above satellite

Ground track
Ground track

The orbit data is extracted from the following two-line orbital elements,

1 19650U 88102B   16152.04775070 -.00000017  00000-0  15839-4 0  9994
2 19650  70.9993  98.6170 0012811  37.6878 322.5140 14.15738767421905
Epoch (UTC): 31 May 2016 01:08:45
Eccentricity: 0.0012811
inclination: 70.9993°
perigee height: 830 km
apogee height: 849 km
right ascension of ascending node: 98.6170°
argument of perigee: 37.6878°
revolutions per day: 14.15738767
mean anomaly at epoch: 322.5140°
orbit number at epoch: 42190

The dashed part of the orbit path shows where the satellite is in the earth's shadow,  

DLR